Showing default

LARES, 38077

Orbit data source: Space-Track

LARES, 38077 is a payload satellite owned by ASI (IT) in LEO that was launched on Mon, 13 Feb 2012 UTC via a VEGA launch vehicle from the French Guiana (FRGUI). Payload-class satellites include a variety of spacecraft equipped with specific instruments for various scientific and technological missions. These include communications satellites like Starlink; space stations such as the ISS; scientific satellites like the Hubble; Earth observation satellites from companies like Planet Labs, Umbra, and HawkEye 360; GPS; miniature CubeSats for education and research; and military/defense satellites.

Loading next visibility...
Identifier
38077, 2012-006A
Orbit
LEO
Country
Flag of ITIT
Related business
Manufacturer
CGS
Mission
Operational Civil Technology
Bus & Motor
LARES, Unknown motor
Mass
400 kg wet, 400 kg dry
Launch date (UTC)
2012-02-13 (14 years ago)
Launch vehicle
VEGA
Launch site
French Guiana (FRGUI)
Object type
Payload
Rocket body
Debris
Shape & HBR
Sphere, 0.2 m
Radar Cross Section
0.126 m², Small (<0.1 m²)

Expand to show TLE details & history
Last TLE update: 10 hours ago

TLE from 10 hours ago
0 LARES
1 38077U 12006A   25260.86921298 -.00000041  00000-0 -13224-4 0  9997
2 38077  69.4924  37.3873 0011217 292.6775  67.3065 12.54931957622904
Epoch: 2025-09-17T20:51Z
TLE epoch observation values (Epoch: 2025-09-17T20:51:40.001Z)
Latitude
-0.00003°
Longitude
87.43164°
Altitude
1,442.678 km
Speed
7.142 km/s
True Right ascension
02h 29m 32s
True Declination
0° 00' 00"
Sunlit
Object was in full shadow at epoch
Visualization orbit readout
Latitude
Unknown
Longitude
Unknown
Altitude
Unknown
Speed
Unknown
Apparent Right ascension
Unknown
Apparent Declination
Unknown
Sunlit
N/A
Visualization observer readout
Local Sidereal Time
23:56:06
Azimuth
Unknown
Elevation
Unknown
Doppler factor
Unknown
Orbital elements
Apogee altitude
1,450.932 km
Perigee altitude
1,433.388 km
Semi-major axis
7,820.297 km
Eccentricity
0.00112
Inclination
69.4924°
RAAN
37.3873°
Arg. of periapsis
292.6775°
True anomaly
67.42515°
Mean anomaly
67.3065°
Eccentric anomaly
67.36582°
Mean motion
3.1384 °/min
Orbital period
114.71 mins
BSTAR
-0.000013224
Loading maneuver chart data...
Computing Atmospheric mass density...
Loading historical data...
Loading historical data...
Loading historical data...
Loading historical data...
Loading historical data...
Loading historical data...
Loading historical data...

Documentation

Showing up to 5 results
|